User: anonymous   Login
Location: Caltech
(34.1382°N, 118.1253°W)
Time: 15:34:34
(UTC-07:00)
Language:

Cosmos 1943 Rocket - Orbit

View from above orbital plane
View from above orbital plane
View from above satellite
View from above satellite

Ground track
Ground track

The orbit data is extracted from the following two-line orbital elements,

1 19120U 88039B   17142.92877866 -.00000135 +00000-0 -41152-4 0  9997
2 19120 071.0158 018.2935 0023679 230.4896 129.4136 14.19167407502535
Epoch (UTC): 22 May 2017 22:17:26
Eccentricity: 0.0023679
inclination: 71.0158°
perigee height: 811 km
apogee height: 845 km
right ascension of ascending node: 18.2935°
argument of perigee: 230.4896°
revolutions per day: 14.19167407
mean anomaly at epoch: 129.4136°
orbit number at epoch: 50253

The dashed part of the orbit path shows where the satellite is in the earth's shadow,  

DLR